Weather History for Bradford, PA

Change the Weather History Date:

Saturday, January 12, 2013

  Actual Average Record
Temperature  
Mean Temperature 46 °F 21 °F  
Max Temperature 53 °F 29 °F 53 °F (2013)
Min Temperature 39 °F 13 °F -15 °F (1981)
Degree Days  
Heating Degree Days 19 38  
Month to date heating degree days 456  
Since 1 July heating degree days 3512  
Cooling Degree Days 0 0  
Month to date cooling degree days 0  
Year to date cooling degree days 0  
Moisture  
Dew Point 45 °F    
Average Humidity 88    
Maximum Humidity 96    
Minimum Humidity 80    
Precipitation  
Precipitation 0.00 in 0.11 in 1.22 in (2005)
Month to date precipitation 1.35  
Year to date precipitation 1.35  
Sea Level Pressure  
Sea Level Pressure 30.04 in    
Wind  
Wind Speed 5 mph (South)    
Max Wind Speed 10 mph    
Max Gust Speed -    
Visibility 3 miles    
Events Fog    
T = Trace of Precipitation, MM = Missing Value Source: NWS Daily Summary

Daily Weather History Graph

Daily Weather History Graph

Search for Another Location

Airport:

Trip Planner

Search our weather history database for the weather conditions in past years. The results will help you decide how hot, cold, wet, or windy it might be!

Date:

Astronomy

Jan. 12, 2013 Rise Set
Actual Time 7:40 AM EST 5:05 PM EST
Civil Twilight 7:09 AM EST 5:36 PM EST
Nautical Twilight 6:35 AM EST 6:11 PM EST
Astronomical Twilight 6:01 AM EST 6:44 PM EST
Moon 7:56 AM EST (1/12) 6:34 PM EST (1/12)
Length of Visible Light 10h 26m
Length of Day
9h 25m
New Moon, 1% of the Moon is Illuminated
Jan 12
New Moon
Jan 18
First Quarter
Jan 26
Full
Feb 3
Last Quarter
Feb 10
New

Hourly Weather History & Observations

Time (EST) Temp. Windchill Dew Point Humidity Pressure Visibility Wind Dir Wind Speed Gust Speed Precip Events Conditions
12:53 AM 41.0 °F 39.0 °F 36.0 °F 82% 30.03 in 0.2 mi SE 3.5 mph - N/A   Haze
1:53 AM 39.9 °F 37.8 °F 36.0 °F 86% 30.04 in 0.2 mi SSE 3.5 mph - N/A Fog Fog
2:53 AM 46.0 °F 42.5 °F 42.1 °F 86% 30.04 in 0.2 mi SSW 6.9 mph - N/A Fog Fog
3:53 AM 46.0 °F 43.1 °F 41.0 °F 83% 30.05 in 0.2 mi South 5.8 mph - N/A   Haze
4:53 AM 45.0 °F 41.8 °F 41.0 °F 86% 30.04 in 0.2 mi SSW 5.8 mph - N/A Fog Fog
5:53 AM 46.0 °F 43.9 °F 42.1 °F 86% 30.05 in 0.2 mi South 4.6 mph - N/A Fog Fog
6:53 AM 46.9 °F - 42.1 °F 83% 30.06 in 0.2 mi South 3.5 mph - N/A   Haze
7:53 AM 48.9 °F - 44.1 °F 83% 30.06 in 0.2 mi SW 3.5 mph - N/A   Haze
8:53 AM 51.1 °F - 46.0 °F 83% 30.05 in 0.2 mi SW 6.9 mph - N/A   Haze
9:53 AM 51.1 °F - 46.9 °F 86% 30.05 in 0.2 mi Variable 5.8 mph - N/A Fog Fog
10:53 AM 52.0 °F - 48.0 °F 86% 30.06 in 0.5 mi SW 6.9 mph - N/A Fog Fog
11:16 AM 52.0 °F - 46.9 °F 83% 30.04 in 1.0 mi SW 6.9 mph - N/A   Haze
11:45 AM 52.0 °F - 46.9 °F 83% 30.04 in 2.0 mi SSW 9.2 mph - N/A   Haze
11:53 AM 52.0 °F - 46.9 °F 83% 30.06 in 1.8 mi Variable 5.8 mph - N/A   Haze
12:03 PM 52.0 °F - 48.0 °F 86% 30.04 in 3.0 mi SW 6.9 mph - N/A   Overcast
12:53 PM 53.1 °F - 46.9 °F 80% 30.04 in 9.0 mi SW 6.9 mph - N/A   Overcast
1:53 PM - - - N/A% 30.04 in 10.0 mi WSW 5.8 mph - N/A   Overcast
2:00 PM - - - N/A% 30.04 in 10.0 mi West 5.8 mph - N/A   Overcast
2:53 PM 51.1 °F - 46.0 °F 83% 30.06 in 10.0 mi SW 4.6 mph - N/A   Overcast
3:53 PM 51.1 °F - 46.0 °F 83% 30.05 in 10.0 mi SSW 6.9 mph - N/A   Mostly Cloudy
4:07 PM 50.0 °F - 46.0 °F 86% 30.04 in 10.0 mi SSW 6.9 mph - N/A   Scattered Clouds
4:26 PM 51.1 °F - 46.0 °F 83% 30.04 in 10.0 mi South 10.4 mph - N/A   Mostly Cloudy
4:51 PM 50.0 °F - 46.4 °F 87% 30.04 in 10.0 mi SSW 6.9 mph - N/A   Mostly Cloudy
4:53 PM 50.0 °F - 46.0 °F 86% 30.05 in 9.0 mi SSW 6.9 mph - N/A   Scattered Clouds
5:30 PM 48.0 °F - 45.0 °F 89% 30.05 in 6.0 mi South 5.8 mph - N/A   Mostly Cloudy
5:53 PM 48.9 °F - 46.0 °F 90% 30.06 in 5.0 mi SSW 6.9 mph - N/A   Overcast
6:16 PM 48.9 °F - 46.9 °F 93% 30.05 in 2.5 mi SSW 9.2 mph - N/A   Overcast
6:33 PM 50.0 °F - 46.9 °F 89% 30.05 in 1.5 mi SSW 3.5 mph - N/A   Overcast
6:43 PM 50.0 °F - 48.0 °F 93% 30.06 in 3.0 mi Variable 3.5 mph - N/A   Overcast
6:53 PM 50.0 °F - 48.0 °F 93% 30.07 in 3.0 mi Calm Calm - N/A   Overcast
7:02 PM 50.0 °F - 48.0 °F 93% 30.06 in 1.5 mi Calm Calm - N/A   Overcast
7:11 PM 48.0 °F - 46.0 °F 93% 30.06 in 0.2 mi Calm Calm - N/A Fog Fog
7:53 PM 44.1 °F 41.5 °F 41.0 °F 89% 30.06 in 0.2 mi ESE 4.6 mph - N/A Fog Fog
8:06 PM 44.1 °F 42.5 °F 43.0 °F 96% 30.05 in 0.2 mi SE 3.5 mph - N/A Fog Fog
8:53 PM 46.9 °F - 44.1 °F 90% 30.06 in 0.2 mi Calm Calm - N/A Fog Fog
9:53 PM 44.1 °F 41.5 °F 42.1 °F 93% 30.04 in 0.2 mi SSE 4.6 mph - N/A Fog Fog
10:04 PM 48.0 °F - 46.0 °F 93% 30.04 in 1.0 mi South 4.6 mph - N/A   Mist
10:12 PM 48.0 °F - 46.0 °F 93% 30.04 in 1.5 mi SSE 4.6 mph - N/A   Partly Cloudy
10:19 PM 46.0 °F 43.9 °F 45.0 °F 96% 30.03 in 0.8 mi SSE 4.6 mph - N/A   Clear
10:26 PM 46.0 °F 43.9 °F 44.1 °F 93% 30.03 in 0.2 mi SE 4.6 mph - N/A Fog Fog
10:36 PM 48.0 °F - 46.0 °F 93% 30.03 in 0.8 mi SSE 3.5 mph - N/A   Clear
10:40 PM 48.0 °F - 46.0 °F 93% 30.03 in 2.0 mi SSE 3.5 mph - N/A   Clear
10:53 PM 46.0 °F 43.1 °F 45.0 °F 96% 30.03 in 0.8 mi SE 5.8 mph - N/A   Mist
11:18 PM 46.9 °F - 45.0 °F 93% 30.01 in 0.8 mi SSE 5.8 mph - N/A   Clear
11:30 PM 48.0 °F - 46.0 °F 93% 30.00 in 2.0 mi SE 5.8 mph - N/A   Clear
11:37 PM 46.9 °F - 45.0 °F 93% 30.00 in 7.0 mi SSE 4.6 mph - N/A   Clear